Home > Weather > Kamen > Past weeks

Flag for Germany Past Weather in Kamen, North Rhine-Westphalia, Germany — Yesterday and Last 2 Weeks

Now
81 °F

Passing clouds.


Feels Like: 80 °F
Forecast: 69 / 88 °F
Wind: 13 mph from South

Location: Dortmund / Wickede

Current Time: Aug 25, 2016 at 12:01:13 PM

Latest Report: Aug 25, 2016 at 10:50 AM


Visibility: N/A

Pressure: 30.07 "Hg

Humidity: 37%

Dew Point: 52 °F

Location of KamenLocation

Past Weather in Kamen — Graph

°F

Kamen Temperature Yesterday

Maximum temperature yesterday: 90 °F (at 4:50 PM)
Minimum temperature yesterday: 57 °F (at 5:50 AM)
Average temperature yesterday: 78 °F

High & Low Weather Summary for the Past Weeks

 TemperatureHumidityPressure
High90 °F (Aug 24, 4:50 PM)94% (Aug 12, 6:20 AM)30.36 "Hg (Aug 12, 6:20 AM)
Low45 °F (Aug 11, 5:20 AM)25% (Aug 24, 3:20 PM)29.80 "Hg (Aug 18, 2:50 PM)
Average65 °F61%30.10 "Hg
* Reported Aug 10 10:20 AM — Aug 25 10:50 AM, Kamen, Weather by CustomWeather, © 2016

Note: Actual official high and low records may vary slightly from our data, if they occured in-between our weather recording intervals... More about our weather records

Advertising

Kamen Weather History for the Previous 24 Hours

Scroll right to see more
 ConditionsComfort  
Time TempWeatherWind HumidityBarometerVisibility
10:50 AM
Thu, Aug 25
81 °FPassing clouds.13 mph37%30.07 "HgN/A
10:20 AM81 °FPassing clouds.7 mph39%30.07 "HgN/A
9:50 AM79 °FSunny.3 mph42%30.07 "Hg10 mi
9:20 AM73 °FPassing clouds.5 mph53%30.09 "HgN/A
8:50 AM72 °FPassing clouds.5 mph61%30.07 "HgN/A
8:20 AM70 °FSunny.5 mph64%30.09 "Hg10 mi
7:50 AM70 °FPassing clouds.5 mph60%30.09 "HgN/A
7:20 AM66 °FClear.7 mph64%30.09 "Hg10 mi
6:50 AM63 °FClear.6 mph68%30.09 "Hg10 mi
6:20 AM63 °FClear.6 mph73%30.09 "Hg10 mi
5:50 AM64 °FClear.3 mph64%30.09 "Hg10 mi
5:20 AM68 °FClear.3 mph60%30.09 "Hg10 mi
9:50 PM
Wed, Aug 24
77 °FPassing clouds.6 mph47%30.12 "HgN/A
9:20 PM77 °FSunny.5 mph51%30.12 "Hg10 mi
8:50 PM79 °FSunny.3 mph45%30.12 "Hg10 mi
8:20 PM82 °FSunny.3 mph37%30.12 "Hg10 mi
7:50 PM82 °FSunny.5 mph37%30.12 "Hg10 mi
7:20 PM86 °FSunny.6 mph31%30.12 "Hg10 mi
6:50 PM88 °FPassing clouds.7 mph29%30.12 "HgN/A
6:20 PM88 °FPassing clouds.6 mph27%30.12 "HgN/A
5:50 PM90 °FSunny.7 mph26%30.12 "Hg10 mi
5:20 PM88 °FPassing clouds.7 mph27%30.15 "HgN/A
4:50 PM90 °FPassing clouds.5 mph26%30.15 "HgN/A
4:20 PM88 °FPassing clouds.7 mph25%30.15 "HgN/A
3:50 PM88 °FPassing clouds.7 mph25%30.15 "HgN/A
3:20 PM88 °FPassing clouds.9 mph25%30.15 "HgN/A
2:50 PM88 °FPassing clouds.10 mph29%30.18 "HgN/A
2:20 PM86 °FPassing clouds.8 mph29%30.18 "HgN/A
1:50 PM86 °FPassing clouds.6 mph31%30.18 "HgN/A
1:20 PM84 °FPassing clouds.7 mph31%30.18 "HgN/A
12:50 PM84 °FPassing clouds.7 mph33%30.21 "HgN/A
12:20 PM82 °FPassing clouds.8 mph32%30.21 "HgN/A
Weather by CustomWeather, © 2016

See weather overviewHow to use our weather pages